Tracking 34717 objects as of 14-Jul-2026
HD Live streaming from Space Station
objects crossing your sky now

STARLINK-11376

Track STARLINK-11376 now!
10-day predictions
STARLINK-11376 is classified as:


NORAD ID: 61575
Int'l Code: 2024-187B
Perigee: 366.1 km
Apogee: 367.7 km
Inclination: 53.2 °
Period: 91.7 minutes
Semi major axis: 6737 km
RCS: Unknown
Launch date: October 18, 2024
Source: United States (US)
Launch site: AIR FORCE EASTERN TEST RANGE (AFETR)
Your satellite tracking list
Your tracking list is empty




NASA's NSSDC Master Catalog

Two Line Element Set (TLE):
1 61575U 24187B   26194.83695001 -.00001134  00000-0 -45072-5 0  9994
2 61575  53.1588  34.3587 0001131 115.5952 244.5183 15.69700132100518
Source of the keplerian elements: AFSPC